EN

Hourly Weather Srikakulam

Today, 27 November, Friday

Time Temperature Precipitation Wind Pressure Humidity
00:00 +20°C° 0 mm 5 mps 759 mmHg 94%
01:00 +20°C° 0.8 mm 5 mps 758 mmHg 94%
02:00 +20°C° 0.8 mm 5 mps 758 mmHg 94%
03:00 +20°C° 0.8 mm 6 mps 758 mmHg 93%
04:00 +20°C° 0.1 mm 6 mps 758 mmHg 93%
05:00 +20°C° 0.1 mm 5 mps 758 mmHg 92%
06:00 +21°C° 0 mm 5 mps 758 mmHg 90%
07:00 +21°C° 0 mm 5 mps 758 mmHg 89%
08:00 +21°C° 0 mm 4 mps 759 mmHg 89%
09:00 +22°C° 0 mm 4 mps 759 mmHg 89%
10:00 +22°C° 0 mm 5 mps 759 mmHg 88%
11:00 +22°C° 0 mm 5 mps 759 mmHg 86%
12:00 +23°C° 0 mm 5 mps 759 mmHg 82%
13:00 +25°C° 0 mm 5 mps 758 mmHg 80%
14:00 +25°C° 0 mm 5 mps 758 mmHg 79%
15:00 +25°C° 0 mm 5 mps 758 mmHg 77%
16:00 +25°C° 0 mm 5 mps 758 mmHg 78%
17:00 +23°C° 0 mm 4 mps 758 mmHg 79%
18:00 +23°C° 0 mm 4 mps 759 mmHg 80%
19:00 +23°C° 0 mm 4 mps 759 mmHg 79%
20:00 +22°C° 0 mm 4 mps 760 mmHg 78%
21:00 +22°C° 0 mm 4 mps 760 mmHg 78%
22:00 +22°C° 0 mm 4 mps 760 mmHg 77%
23:00 +22°C° 0 mm 4 mps 760 mmHg 76%

Tomorrow, 28 November, Saturday

Time Temperature Precipitation Wind Pressure Humidity
00:00 +22°C° 0 mm 4 mps 760 mmHg 75%
01:00 +21°C° 0 mm 3 mps 759 mmHg 74%
02:00 +21°C° 0 mm 3 mps 759 mmHg 73%
03:00 +21°C° 0 mm 3 mps 758 mmHg 72%
04:00 +21°C° 0 mm 3 mps 759 mmHg 70%
05:00 +21°C° 0 mm 3 mps 759 mmHg 67%
06:00 +21°C° 0 mm 3 mps 759 mmHg 64%
07:00 +22°C° 0 mm 3 mps 759 mmHg 63%
08:00 +24°C° 0 mm 3 mps 760 mmHg 62%
09:00 +23°C° 0 mm 4 mps 760 mmHg 60%
10:00 +26°C° 0 mm 4 mps 760 mmHg 54%
11:00 +28°C° 0 mm 5 mps 760 mmHg 48%
12:00 +30°C° 0 mm 5 mps 760 mmHg 42%
13:00 +30°C° 0 mm 5 mps 759 mmHg 43%
14:00 +32°C° 0 mm 6 mps 758 mmHg 44%
15:00 +32°C° 0 mm 6 mps 758 mmHg 45%
16:00 +29°C° 0 mm 6 mps 758 mmHg 51%
17:00 +27°C° 0 mm 5 mps 758 mmHg 57%
18:00 +25°C° 0 mm 5 mps 759 mmHg 63%
19:00 +25°C° 0 mm 4 mps 759 mmHg 63%
20:00 +23°C° 0 mm 4 mps 760 mmHg 64%
21:00 +23°C° 0 mm 4 mps 760 mmHg 64%
22:00 +23°C° 0 mm 4 mps 760 mmHg 65%
23:00 +22°C° 0 mm 4 mps 760 mmHg 66%

Day after tomorrow, 29 November, Sunday

Time Temperature Precipitation Wind Pressure Humidity
00:00 +22°C° 0 mm 4 mps 760 mmHg 67%
01:00 +22°C° 0 mm 3 mps 759 mmHg 68%
02:00 +21°C° 0 mm 3 mps 759 mmHg 69%
03:00 +21°C° 0 mm 3 mps 758 mmHg 71%
04:00 +21°C° 0 mm 3 mps 758 mmHg 70%
05:00 +21°C° 0 mm 3 mps 758 mmHg 70%
06:00 +20°C° 0 mm 2 mps 758 mmHg 69%
07:00 +23°C° 0 mm 2 mps 759 mmHg 64%
08:00 +24°C° 0 mm 2 mps 760 mmHg 59%
09:00 +26°C° 0 mm 2 mps 760 mmHg 54%
10:00 +28°C° 0 mm 3 mps 760 mmHg 50%
11:00 +29°C° 0 mm 4 mps 760 mmHg 45%
12:00 +32°C° 0 mm 4 mps 759 mmHg 41%
13:00 +32°C° 0 mm 5 mps 759 mmHg 41%
14:00 +32°C° 0 mm 5 mps 758 mmHg 42%
15:00 +32°C° 0 mm 6 mps 757 mmHg 42%
16:00 +29°C° 0 mm 5 mps 758 mmHg 49%
17:00 +27°C° 0 mm 5 mps 758 mmHg 56%
18:00 +25°C° 0 mm 5 mps 758 mmHg 63%
19:00 +25°C° 0 mm 5 mps 759 mmHg 65%
20:00 +23°C° 0 mm 4 mps 759 mmHg 67%
21:00 +23°C° 0 mm 4 mps 760 mmHg 69%
22:00 +22°C° 0 mm 3 mps 760 mmHg 70%
23:00 +22°C° 0 mm 3 mps 759 mmHg 71%

30 November, Monday

Time Temperature Precipitation Wind Pressure Humidity
00:00 +21°C° 0 mm 3 mps 759 mmHg 73%
01:00 +21°C° 0 mm 3 mps 759 mmHg 73%
02:00 +21°C° 0 mm 2 mps 759 mmHg 73%
03:00 +21°C° 0 mm 2 mps 758 mmHg 73%
04:00 +20°C° 0 mm 2 mps 758 mmHg 73%
05:00 +20°C° 0 mm 2 mps 758 mmHg 73%
06:00 +20°C° 0 mm 2 mps 758 mmHg 73%
07:00 +23°C° 0 mm 2 mps 759 mmHg 69%
08:00 +24°C° 0 mm 2 mps 760 mmHg 65%
09:00 +26°C° 0 mm 2 mps 760 mmHg 61%
10:00 +27°C° 0 mm 3 mps 760 mmHg 55%
11:00 +29°C° 0 mm 3 mps 759 mmHg 49%
12:00 +32°C° 0 mm 4 mps 759 mmHg 42%
13:00 +32°C° 0 mm 4 mps 758 mmHg 42%
14:00 +32°C° 0 mm 4 mps 758 mmHg 43%
15:00 +32°C° 0 mm 4 mps 757 mmHg 43%
16:00 +29°C° 0 mm 4 mps 757 mmHg 50%
17:00 +27°C° 0 mm 4 mps 757 mmHg 58%
18:00 +25°C° 0 mm 4 mps 758 mmHg 65%
19:00 +23°C° 0 mm 4 mps 758 mmHg 66%
20:00 +23°C° 0 mm 4 mps 759 mmHg 68%
21:00 +22°C° 0 mm 3 mps 759 mmHg 69%
22:00 +22°C° 0 mm 3 mps 759 mmHg 70%
23:00 +21°C° 0 mm 3 mps 759 mmHg 71%

1 December, Tuesday

Time Temperature Precipitation Wind Pressure Humidity
00:00 +21°C° 0 mm 3 mps 759 mmHg 72%
01:00 +21°C° 0 mm 3 mps 759 mmHg 73%
02:00 +20°C° 0 mm 3 mps 758 mmHg 73%
03:00 +20°C° 0 mm 3 mps 758 mmHg 74%
04:00 +20°C° 0 mm 3 mps 758 mmHg 75%
05:00 +20°C° 0 mm 3 mps 758 mmHg 75%
06:00 +20°C° 0 mm 3 mps 759 mmHg 76%
07:00 +21°C° 0 mm 3 mps 759 mmHg 70%
08:00 +24°C° 0 mm 3 mps 760 mmHg 65%
09:00 +26°C° 0 mm 3 mps 760 mmHg 60%
10:00 +27°C° 0 mm 3 mps 760 mmHg 53%
11:00 +29°C° 0 mm 3 mps 759 mmHg 46%
12:00 +32°C° 0 mm 4 mps 759 mmHg 39%
13:00 +32°C° 0 mm 4 mps 758 mmHg 39%
14:00 +32°C° 0 mm 4 mps 758 mmHg 39%
15:00 +32°C° 0 mm 5 mps 757 mmHg 39%
16:00 +29°C° 0 mm 4 mps 757 mmHg 47%
17:00 +27°C° 0 mm 4 mps 758 mmHg 55%
18:00 +25°C° 0 mm 4 mps 758 mmHg 63%
19:00 +24°C° 0 mm 3 mps 758 mmHg 65%
20:00 +22°C° 0 mm 3 mps 759 mmHg 67%
21:00 +22°C° 0 mm 3 mps 759 mmHg 69%
22:00 +21°C° 0 mm 3 mps 759 mmHg 70%
23:00 +21°C° 0 mm 3 mps 759 mmHg 70%

2 December, Wednesday

Time Temperature Precipitation Wind Pressure Humidity
00:00 +21°C° 0 mm 2 mps 759 mmHg 70%
01:00 +20°C° 0 mm 2 mps 758 mmHg 70%
02:00 +20°C° 0 mm 2 mps 758 mmHg 71%
03:00 +20°C° 0 mm 2 mps 758 mmHg 71%
04:00 +20°C° 0 mm 2 mps 758 mmHg 71%
05:00 +20°C° 0 mm 2 mps 758 mmHg 71%
06:00 +20°C° 0 mm 2 mps 758 mmHg 71%
07:00 +21°C° 0 mm 2 mps 758 mmHg 67%
08:00 +24°C° 0 mm 3 mps 759 mmHg 62%
09:00 +26°C° 0 mm 3 mps 759 mmHg 57%
10:00 +27°C° 0 mm 3 mps 759 mmHg 51%
11:00 +29°C° 0 mm 2 mps 759 mmHg 45%
12:00 +31°C° 0 mm 2 mps 758 mmHg 39%
13:00 +31°C° 0 mm 3 mps 758 mmHg 40%
14:00 +31°C° 0 mm 3 mps 757 mmHg 40%
15:00 +33°C° 0 mm 3 mps 756 mmHg 41%
16:00 +29°C° 0 mm 3 mps 756 mmHg 50%
17:00 +27°C° 0 mm 3 mps 757 mmHg 59%
18:00 +25°C° 0 mm 3 mps 757 mmHg 69%
19:00 +25°C° 0 mm 2 mps 757 mmHg 71%
20:00 +24°C° 0 mm 2 mps 758 mmHg 74%
21:00 +23°C° 0 mm 1 mps 758 mmHg 76%
22:00 +23°C° 0 mm 1 mps 758 mmHg 76%
23:00 +23°C° 0 mm 1 mps 758 mmHg 76%
Show more